Regional Weather Roundup
Issued by NWS

Home | Current Version | Previous Version | Graphics & Text | Print | Product List | Glossary On
Versions: 1 2 3 4 5 6 7 8 9 10 11 12 13 14 15 16 17 18 19 20 21 22 23 24 25 26 27 28 29 30 31 32 33 34 35 36 37 38 39 40 41 42 43 44 45 46 47 48 49 50
000
ASUS45 KPSR 270910
RWRAZ

ARIZONA REGIONAL HOURLY WEATHER ROUNDUP
NATIONAL WEATHER SERVICE PHOENIX AZ
200 AM MST TUE JAN 27 2015

NOTE: FAIR INDICATES FEW OR NO CLOUDS BELOW 12,000 FEET WITH NO
SIGNIFICANT WEATHER AND/OR OBSTRUCTIONS TO VISIBILITY.

AZZ001>003-036-271000-
NORTHWEST ARIZONA

CITY           SKY/WX    TMP DP  RH WIND       PRES   REMARKS
BULLHEAD CITY  CLOUDY    54  52  94 CALM      30.22S
KINGMAN        LGT RAIN  46  43  89 NW7       30.20F
$$

AZZ004>008-015-016-018-271000-
NORTH CENTRAL ARIZONA

CITY           SKY/WX    TMP DP  RH WIND       PRES   REMARKS
GRAND CANYON   LGT RAIN  39  36  89 E5        30.30S
PRESCOTT       CLOUDY    45  39  79 SE16      30.25F
FLAGSTAFF      CLOUDY    39  29  67 CALM      30.31S
PAYSON         CLOUDY    48  32  53 NE3       30.30F
$$

AZZ009>014-017-271000-
NORTHEAST ARIZONA

CITY           SKY/WX    TMP DP  RH WIND       PRES   REMARKS
WINSLOW        LGT RAIN  39  31  72 SE5       30.29F
SAINT JOHNS    CLOUDY    44  27  51 CALM      30.29R
WINDOW ROCK    PTCLDY    28  23  81 NE5       30.34  WCI  23
SHOW LOW       CLOUDY    41  27  56 S6        30.34F
$$

AZZ023-271000-
GREATER PHOENIX AREA

CITY           SKY/WX    TMP DP  RH WIND       PRES   REMARKS
PHOENIX        CLOUDY    58  49  72 W5        30.17S
BUCKEYE          N/A     54  54 100 W5        30.19S
LUKE AFB       NOT AVBL
DEER VALLEY    CLOUDY    57  49  74 NW3       30.17S
SCOTTSDALE     CLOUDY    57  50  77 W3        30.19R
MESA-GATEWAY   CLOUDY    52  48  87 CALM      30.20R
$$

AZZ027-028-271000-
SOUTHWEST MARICOPA COUNTY AND PINAL COUNTY

CITY           SKY/WX    TMP DP  RH WIND       PRES   REMARKS
CASA GRANDE    CLOUDY    54  46  76 CALM      30.19R
GILA BEND      CLOUDY    54  50  87 E2        30.17S
$$

AZZ503-504-507>509-271000-
SOUTHEAST ARIZONA

CITY           SKY/WX    TMP DP  RH WIND       PRES   REMARKS
TUCSON         CLEAR     52  42  69 SE6       30.22S
DAVIS-MONTHAN  CLEAR     52  43  70 SE9       30.20S
NOGALES        MOCLDY    49  46  90 E6        30.23S
SIERRA VISTA   MOCLDY    46  43  87 CALM      30.27S
DOUGLAS        MOCLDY    50  30  46 N5        30.26F
SAFFORD        CLOUDY    54  38  54 E12       30.25F
$$

AZZ020-021-025-026-031-271000-
SOUTHWEST ARIZONA

CITY           SKY/WX    TMP DP  RH WIND       PRES   REMARKS
YUMA           CLOUDY    57  52  83 N10       30.15S
$$

CAZ031-033-041-043-047-048-061-271000-
SOUTHERN CALIFORNIA

CITY           SKY/WX    TMP DP  RH WIND       PRES   REMARKS
DOWNTOWN L.A.  CLOUDY    57  52  83 CALM      30.11S
L.A. AIRPORT   PTCLDY    56  52  86 CALM      30.12R
SAN DIEGO      MOCLDY    57  50  77 N3        30.11S
BURBANK        CLOUDY    55  53  93 CALM      30.11S
ONTARIO        MOCLDY    55  52  89 CALM      30.12S FOG
RIVERSIDE      CLOUDY    54  52  93 CALM      30.13S FOG
PALM SPRINGS   CLOUDY    58  55  90 CALM      30.18S
EL CENTRO NAS  CLOUDY    57  55  93 CALM      30.16R
IMPERIAL       CLOUDY    56  55  97 CALM      30.15S
BLYTHE         CLOUDY    55  53  93 N6        30.18S
NEEDLES        CLOUDY    53  51  93 N3        30.20S
$$

NVZ020-UTZ003-271000-
SOUTHERN NEVADA-UTAH

CITY           SKY/WX    TMP DP  RH WIND       PRES   REMARKS
LAS VEGAS      LGT RAIN  53  48  83 S10       30.16F
SALT LAKE CITY PTCLDY    33  31  92 W5        30.18S WCI  29
$$

NMZ009-TXZ055-271000-
NEW MEXICO-WEST TEXAS

CITY           SKY/WX    TMP DP  RH WIND       PRES   REMARKS
ALBUQUERQUE    PTCLDY    38  26  62 NE5       30.34S WCI  34
EL PASO        LGT RAIN  49  35  58 N5        30.28F
$$


........................KEY........................
SKY/WX - SKY CONDITION/WEATHER
TMP    - TEMPERATURE IN FAHRENHEIT
DP     - DEW POINT IN FAHRENHEIT
RH     - RELATIVE HUMIDITY IN PERCENT
WIND   - DIRECTION AND SPEED IN MILES PER HOUR (MPH)
VRB    - VARIABLE WIND DIRECTION
PRES   - MEAN SEA LEVEL PRESSURE IN INCHES OF MERCURY
         F - FALLING PRESSURE   R - RISING PRESSURE
         S - STEADY PRESSURE
VSB    - VISIBILITY IN MILES
HX     - HEAT INDEX IN FAHRENHEIT
WCI    - WIND CHILL INDEX IN FAHRENHEIT
TC     - TEMPERATURE IN CELSIUS WHICH IS ALSO KNOWN AS
         TEMPERATURE IN CENTIGRADE
AFB    - AIR FORCE BASE
         LUKE AFB IS LUKE AIR FORCE BASE
         DAVIS-MONTHAN IS DAVIS-MONTHAN AIR FORCE BASE
NAS    - NAVAL AIR STATION
         EL CENTRO NAS IS EL CENTRO NAVAL AIR STATION
N/A    - NOT AVAILABLE


USA.gov is the U.S. government's official web portal to all federal, state and local government web resources and services.